Stündliche Wetter Bolshie Koshevniki

Heute, 29 Juli, Donnerstag

Zeit Temperatur Niederschläge Wind Luftdruck Luftfeuchtigkeit
00:00 +21°C° 0 mm 1 m/S 738 mmHg 79%
01:00 +20°C° 0 mm 1 m/S 738 mmHg 80%
02:00 +20°C° 0 mm 1 m/S 738 mmHg 83%
03:00 +20°C° 0 mm 1 m/S 738 mmHg 83%
04:00 +20°C° 0 mm 1 m/S 738 mmHg 83%
05:00 +20°C° 0 mm 1 m/S 738 mmHg 84%
06:00 +21°C° 0 mm 1 m/S 738 mmHg 80%
07:00 +22°C° 0 mm 1 m/S 738 mmHg 76%
08:00 +22°C° 0 mm 0 m/S 738 mmHg 70%
09:00 +25°C° 0.2 mm 1 m/S 737 mmHg 67%
10:00 +26°C° 0.2 mm 1 m/S 737 mmHg 64%
11:00 +27°C° 0.2 mm 2 m/S 737 mmHg 61%
12:00 +25°C° 1.7 mm 2 m/S 737 mmHg 72%
13:00 +23°C° 1.7 mm 2 m/S 737 mmHg 82%
14:00 +20°C° 1.7 mm 2 m/S 737 mmHg 93%
15:00 +21°C° 0.2 mm 3 m/S 737 mmHg 87%
16:00 +22°C° 0.2 mm 4 m/S 737 mmHg 82%
17:00 +23°C° 0.2 mm 4 m/S 736 mmHg 77%
18:00 +22°C° 0.2 mm 4 m/S 737 mmHg 81%
19:00 +21°C° 0.2 mm 3 m/S 737 mmHg 85%
20:00 +20°C° 0.2 mm 2 m/S 737 mmHg 90%
21:00 +19°C° 0 mm 2 m/S 737 mmHg 89%
22:00 +19°C° 0 mm 2 m/S 737 mmHg 89%
23:00 +18°C° 0 mm 2 m/S 737 mmHg 89%

Morgen, 30 Juli, Freitag

Zeit Temperatur Niederschläge Wind Luftdruck Luftfeuchtigkeit
00:00 +18°C° 0 mm 2 m/S 737 mmHg 89%
01:00 +18°C° 0 mm 2 m/S 737 mmHg 89%
02:00 +17°C° 0 mm 3 m/S 737 mmHg 90%
03:00 +17°C° 0 mm 2 m/S 737 mmHg 90%
04:00 +17°C° 0 mm 2 m/S 737 mmHg 91%
05:00 +16°C° 0 mm 2 m/S 737 mmHg 92%
06:00 +17°C° 0 mm 3 m/S 737 mmHg 87%
07:00 +19°C° 0 mm 4 m/S 737 mmHg 82%
08:00 +20°C° 0 mm 4 m/S 737 mmHg 77%
09:00 +21°C° 0.1 mm 5 m/S 737 mmHg 68%
10:00 +22°C° 0.1 mm 6 m/S 737 mmHg 59%
11:00 +23°C° 0.1 mm 6 m/S 737 mmHg 50%
12:00 +23°C° 0 mm 6 m/S 737 mmHg 48%
13:00 +23°C° 0 mm 6 m/S 737 mmHg 46%
14:00 +24°C° 0 mm 6 m/S 737 mmHg 44%
15:00 +23°C° 0 mm 6 m/S 737 mmHg 48%
16:00 +22°C° 0 mm 6 m/S 736 mmHg 52%
17:00 +22°C° 0 mm 5 m/S 736 mmHg 56%
18:00 +21°C° 0 mm 5 m/S 736 mmHg 59%
19:00 +20°C° 0 mm 5 m/S 736 mmHg 62%
20:00 +19°C° 0 mm 4 m/S 736 mmHg 66%
21:00 +18°C° 0 mm 4 m/S 736 mmHg 72%
22:00 +17°C° 0 mm 4 m/S 736 mmHg 77%
23:00 +16°C° 0 mm 3 m/S 736 mmHg 83%

übermorgen, 31 Juli, Samstag

Zeit Temperatur Niederschläge Wind Luftdruck Luftfeuchtigkeit
00:00 +14°C° 0 mm 3 m/S 736 mmHg 83%
01:00 +14°C° 0 mm 3 m/S 736 mmHg 83%
02:00 +14°C° 0 mm 4 m/S 736 mmHg 83%
03:00 +14°C° 0 mm 3 m/S 736 mmHg 83%
04:00 +13°C° 0 mm 3 m/S 736 mmHg 84%
05:00 +13°C° 0 mm 3 m/S 736 mmHg 85%
06:00 +15°C° 0 mm 4 m/S 736 mmHg 77%
07:00 +18°C° 0 mm 4 m/S 736 mmHg 70%
08:00 +19°C° 0 mm 5 m/S 737 mmHg 63%
09:00 +21°C° 0 mm 5 m/S 737 mmHg 58%
10:00 +22°C° 0 mm 5 m/S 737 mmHg 54%
11:00 +23°C° 0 mm 6 m/S 737 mmHg 49%
12:00 +25°C° 0 mm 5 m/S 737 mmHg 48%
13:00 +26°C° 0 mm 5 m/S 737 mmHg 47%
14:00 +26°C° 0 mm 5 m/S 737 mmHg 46%
15:00 +26°C° 0 mm 4 m/S 737 mmHg 48%
16:00 +26°C° 0 mm 4 m/S 736 mmHg 50%
17:00 +26°C° 0 mm 3 m/S 736 mmHg 52%
18:00 +25°C° 0 mm 2 m/S 736 mmHg 58%
19:00 +23°C° 0 mm 1 m/S 736 mmHg 64%
20:00 +22°C° 0 mm 1 m/S 736 mmHg 70%
21:00 +22°C° 0 mm 1 m/S 736 mmHg 70%
22:00 +20°C° 0 mm 2 m/S 736 mmHg 70%
23:00 +20°C° 0 mm 3 m/S 736 mmHg 70%

1 August, Sonntag

Zeit Temperatur Niederschläge Wind Luftdruck Luftfeuchtigkeit
00:00 +19°C° 0.4 mm 2 m/S 736 mmHg 78%
01:00 +18°C° 0.4 mm 2 m/S 736 mmHg 86%
02:00 +17°C° 0.4 mm 2 m/S 735 mmHg 94%
03:00 +17°C° 0.1 mm 2 m/S 735 mmHg 95%
04:00 +17°C° 0.1 mm 2 m/S 735 mmHg 96%
05:00 +17°C° 0.1 mm 2 m/S 735 mmHg 97%
06:00 +18°C° 0 mm 3 m/S 736 mmHg 91%
07:00 +19°C° 0 mm 4 m/S 736 mmHg 86%
08:00 +20°C° 0 mm 5 m/S 736 mmHg 80%
09:00 +21°C° 0 mm 5 m/S 736 mmHg 70%
10:00 +22°C° 0 mm 5 m/S 737 mmHg 61%
11:00 +23°C° 0 mm 5 m/S 737 mmHg 52%
12:00 +25°C° 0 mm 5 m/S 737 mmHg 50%
13:00 +25°C° 0 mm 5 m/S 737 mmHg 49%
14:00 +26°C° 0 mm 5 m/S 737 mmHg 48%
15:00 +25°C° 0 mm 5 m/S 737 mmHg 50%
16:00 +25°C° 0 mm 5 m/S 737 mmHg 52%
17:00 +25°C° 0 mm 5 m/S 737 mmHg 54%
18:00 +22°C° 0 mm 3 m/S 737 mmHg 60%
19:00 +21°C° 0 mm 2 m/S 737 mmHg 65%
20:00 +20°C° 0 mm 1 m/S 736 mmHg 70%
21:00 +20°C° 0 mm 1 m/S 736 mmHg 70%
22:00 +20°C° 0 mm 1 m/S 737 mmHg 70%
23:00 +20°C° 0 mm 1 m/S 737 mmHg 70%

2 August, Montag

Zeit Temperatur Niederschläge Wind Luftdruck Luftfeuchtigkeit
00:00 +19°C° 0.2 mm 1 m/S 736 mmHg 74%
01:00 +19°C° 0.2 mm 1 m/S 736 mmHg 78%
02:00 +18°C° 0.2 mm 1 m/S 736 mmHg 82%
03:00 +18°C° 1.9 mm 1 m/S 736 mmHg 87%
04:00 +18°C° 1.9 mm 1 m/S 735 mmHg 92%
05:00 +16°C° 1.9 mm 2 m/S 735 mmHg 97%
06:00 +16°C° 2.8 mm 2 m/S 735 mmHg 97%
07:00 +16°C° 2.8 mm 2 m/S 734 mmHg 97%
08:00 +16°C° 2.8 mm 3 m/S 734 mmHg 98%
09:00 +16°C° 1.6 mm 2 m/S 734 mmHg 97%
10:00 +16°C° 1.6 mm 2 m/S 734 mmHg 97%
11:00 +17°C° 1.6 mm 2 m/S 734 mmHg 97%
12:00 +16°C° 0.9 mm 3 m/S 734 mmHg 97%
13:00 +16°C° 0.9 mm 3 m/S 734 mmHg 97%
14:00 +16°C° 0.9 mm 3 m/S 734 mmHg 96%
15:00 +15°C° 0.6 mm 4 m/S 734 mmHg 96%
16:00 +14°C° 0.6 mm 5 m/S 735 mmHg 95%
17:00 +14°C° 0.6 mm 5 m/S 735 mmHg 95%
18:00 +13°C° 0.3 mm 5 m/S 735 mmHg 94%
19:00 +13°C° 0.3 mm 4 m/S 735 mmHg 94%
20:00 +13°C° 0.3 mm 4 m/S 736 mmHg 93%
21:00 +13°C° 0.1 mm 3 m/S 736 mmHg 94%
22:00 +13°C° 0.1 mm 3 m/S 736 mmHg 94%
23:00 +14°C° 0.1 mm 2 m/S 736 mmHg 95%

3 August, Dienstag

Zeit Temperatur Niederschläge Wind Luftdruck Luftfeuchtigkeit
00:00 +13°C° 0.2 mm 3 m/S 736 mmHg 95%
01:00 +13°C° 0.2 mm 3 m/S 737 mmHg 96%
02:00 +13°C° 0.2 mm 3 m/S 737 mmHg 96%
03:00 +13°C° 0.1 mm 3 m/S 737 mmHg 96%
04:00 +13°C° 0.1 mm 3 m/S 737 mmHg 96%
05:00 +12°C° 0.1 mm 3 m/S 737 mmHg 96%
06:00 +13°C° 0 mm 4 m/S 738 mmHg 93%
07:00 +13°C° 0 mm 4 m/S 738 mmHg 90%
08:00 +14°C° 0 mm 5 m/S 739 mmHg 87%
09:00 +15°C° 0.1 mm 5 m/S 739 mmHg 79%
10:00 +16°C° 0.1 mm 5 m/S 739 mmHg 71%
11:00 +19°C° 0.1 mm 5 m/S 740 mmHg 64%
12:00 +19°C° 0 mm 5 m/S 740 mmHg 59%
13:00 +20°C° 0 mm 5 m/S 740 mmHg 55%
14:00 +21°C° 0 mm 5 m/S 740 mmHg 50%
15:00 +20°C° 0 mm 4 m/S 740 mmHg 53%
16:00 +20°C° 0 mm 4 m/S 740 mmHg 56%
17:00 +20°C° 0 mm 3 m/S 740 mmHg 59%
18:00 +18°C° 0.1 mm 3 m/S 740 mmHg 66%
19:00 +17°C° 0.1 mm 2 m/S 740 mmHg 73%
20:00 +15°C° 0.1 mm 1 m/S 740 mmHg 80%
21:00 +15°C° 0 mm 1 m/S 741 mmHg 82%
22:00 +14°C° 0 mm 1 m/S 741 mmHg 84%
23:00 +14°C° 0 mm 1 m/S 741 mmHg 86%
Mehr zeigen

Wir brauchen deine Erlaubnis

Meteoprog und unser Service Anbieter werden persönliche Daten aufbewahren, so wie Cookies, Geräte Bezeichnung oder ähnliche Technologien von deinem Gerät und Prozess, so wie Persönliche Daten Inhalte und Werbungen, genauso wie social Media und den Verkehr zu analysieren.

  • Aufbewahrung und/oder Zugang zu deiner Geräte Informationen.

    Cookies, Geräte Bezeichnung oder andere Informationen, können aufbewahrt oder Zugang zu deinem Gerät erhalten, für den Grund, der oben angegeben wird.

  • Personalisierte Werbung und Inhalte, Messungen, Einblick in das Publikum und Produkt Entwicklung.

    Werbungen und Inhalte können personalisiert werden, basierend auf ein Profil. Mehr Daten können besser personalisierte Werbungen und Inhalte hinzufügen. Werbung und Inhalte können gezeigt und gemessen werden. Einblicke über das Publikum, welche die Werbung gesehen haben und den Inhalt, können abgeleitet werden. So wie Daten können genutzt werden, um es zu verbessern oder die Benutzer Erfahrung zu verbessern das System und die Software.

Wenn du “Ich stimme zu” klickst, erlaubst du uns, die Cookies zu benutzen die Geräte Bezeichnung, den Web oder ähnliche Technologien zu benutzen. Deine Settings, können in deinem Gerät bei deinem Browser geändert werden.

Für den bestimmten Zweck, berechtigten Interessen beruhen darauf, mehr als auf den Inhalt. Du kannst mehr darüber in unseren Privaten und Cookie Politik lesen.